{"data":{"norad_id":52673,"epoch":"2026-05-25T01:50:58.384896Z","epoch_age_seconds":58499,"freshness":"FRESH","line1":"1 52673U 22053T   26145.07706464  .00000318  00000+0  38038-4 0  9994","line2":"2 52673  53.2140 171.2029 0001195  80.0159 280.0968 15.08842031222574","mean_motion":15.08842031,"eccentricity":0.0001195,"inclination_deg":53.214,"raan_deg":171.2029,"arg_perigee_deg":80.0159,"mean_anomaly_deg":280.0968,"bstar":3.8038e-5,"rev_number":22257,"period_min":95.437426212579,"perigee_km":538.91049505195,"apogee_km":540.56386698121,"semimajor_km":6917.8741810166,"source":"CELESTRAK","updated_at":"2026-05-25T13:38:17.232842Z"}}